Kindakun Point, British Columbia

12:04 PM PST on December 09, 2016 (GMT -0800)
Kindakun Rocks

Weather History for CWQS - December, 2012

Change the Weather History Date:

Thursday, December 27, 2012

  Actual Average (CYZP) Record (CYZP)
Temperature  
Mean Temperature 42 °F -  
Max Temperature 46 °F 40 °F 48 °F (1997)
Min Temperature 39 °F 33 °F 17 °F (1996)
Degree Days  
Heating Degree Days 22    
Moisture  
Dew Point 40 °F    
Average Humidity 84    
Maximum Humidity 93    
Minimum Humidity 71    
Precipitation  
Precipitation 0.28 in - - ()
Sea Level Pressure  
Sea Level Pressure 29.73 in    
Wind  
Wind Speed 16 mph ()    
Max Wind Speed 31 mph    
Max Gust Speed 39 mph    
Averages and records for this station are not official NWS values.
T = Trace of Precipitation, MM = Missing Value Source: Averaged Metar Reports

Daily Weather History Graph

Daily Weather History Graph

Search for Another Location

Airport or City:

Trip Planner

Search our weather history database for the weather conditions in past years. The results will help you decide how hot, cold, wet, or windy it might be!

Date:

Astronomy

Dec. 27, 2012 Rise Set
Actual Time 9:06 AM PST 4:38 PM PST
Civil Twilight 8:23 AM PST 5:21 PM PST
Nautical Twilight 7:38 AM PST 6:06 PM PST
Astronomical Twilight 6:55 AM PST 6:49 PM PST
Moon 4:34 PM PST (12/27) 8:17 AM PST (12/27)
Length of Visible Light 8h 58m
Length of Day
7h 32m
Full, 100% of the Moon is Illuminated
Dec 27
Full
Dec 28
Full
Jan 4
Last Quarter
Jan 11
New
Jan 18
First Quarter

Hourly Weather History & Observations

Time (PST) Temp. Windchill Dew Point Humidity Pressure Visibility Wind Dir Wind Speed Gust Speed Precip Events Conditions
12:00 AM 42.8 °F 35.1 °F 36.1 °F 77% 29.83 in - South 16.1 mph - N/A   Unknown
1:00 AM 43 °F - 37 °F 72% 29.81 in - South 16.1 mph - -  
2:00 AM 43.5 °F 36.1 °F 37.4 °F 79% 29.81 in - South 16.1 mph - N/A   Unknown
3:00 AM 43.3 °F 34.7 °F 38.3 °F 82% 29.80 in - SSE 20.7 mph - N/A   Unknown
5:00 AM 43.7 °F 35.0 °F 38.1 °F 81% 29.75 in - SSE 21.9 mph 27.6 mph 0.01 in   Unknown
6:00 AM 44.2 °F 35.9 °F 38.1 °F 79% 29.71 in - SSE 20.7 mph 28.8 mph N/A   Unknown
7:00 AM 45 °F - 39 °F 71% 29.68 in - South 24.2 mph - -  
7:00 AM 45.0 °F 36.2 °F 38.7 °F 79% 29.68 in - South 24.2 mph 31.1 mph 0.01 in   Unknown
8:00 AM 44.2 °F 35.0 °F 39.2 °F 82% 29.70 in - South 25.3 mph 33.4 mph N/A   Unknown
9:00 AM 45.1 °F 35.5 °F 40.1 °F 82% 29.68 in - South 29.9 mph 35.7 mph 0.03 in   Unknown
10:00 AM 46 °F - 42 °F 79% 29.68 in - South 31.1 mph - -  
11:00 AM 45.7 °F 36.0 °F 43.3 °F 92% 29.68 in - South 31.1 mph 39.1 mph 0.05 in   Unknown
1:00 PM 44 °F - 40 °F 83% 29.71 in - WSW 16.1 mph - -  
1:00 PM 44.2 °F 37.0 °F 40.5 °F 87% 29.71 in - WSW 16.1 mph 25.3 mph 0.09 in   Unknown
2:00 PM 43.5 °F 39.4 °F 40.1 °F 88% 29.70 in - ESE 6.9 mph - 0.06 in   Unknown
3:00 PM 42.4 °F 35.3 °F 39.7 °F 90% 29.69 in - ESE 13.8 mph - 0.03 in   Unknown
4:00 PM 43 °F - 39 °F 82% 29.69 in - ESE 12.7 mph - -  
4:00 PM 42.8 °F 36.2 °F 39.4 °F 88% 29.69 in - ESE 12.7 mph 19.6 mph N/A   Unknown
5:00 PM 43.9 °F 38.8 °F 39.6 °F 85% 29.71 in - SSE 9.2 mph - N/A   Unknown
6:00 PM 43.5 °F 37.5 °F 39.9 °F 87% 29.71 in - SSE 11.5 mph - N/A   Unknown
7:00 PM 43 °F - 40 °F 86% 29.73 in - South 11.5 mph - -  
7:00 PM 43.3 °F 37.2 °F 40.3 °F 89% 29.73 in - South 11.5 mph - N/A   Unknown
8:00 PM 43.9 °F 39.3 °F 40.6 °F 88% 29.73 in - South 8.1 mph - N/A   Unknown
10:00 PM 43 °F - 41 °F 91% 29.75 in - South 10.4 mph - -  
10:00 PM 43.2 °F 37.4 °F 41.2 °F 93% 29.75 in - South 10.4 mph - N/A   Unknown
11:00 PM 43.9 °F 38.3 °F 41.9 °F 93% 29.76 in - South 10.4 mph - N/A   Unknown